Date String (YYYY-MM-DD hh:mm:ss) UTC,Instrument flags,absolute air pressure of the measurement (hPa),sample flow rate (lpm),inlet stack bypass flow (lpm),air temperature of the measurement (°C),ambient temperature measured by the external sensor (°C),aerosol sample conditioner tube jacket temperature (°C),OPC LED temperature (°C),internal box temperature (°C),relative humidity of the measurement (%),span deviation,mass concentration of particles derived from Lorenz-Mie calculation of OPC scattering (μg/m³),mass concentration of particles derived from Lorenz-Mie calculation of OPC scattering (μg/m³),mass concentration of particles derived from Lorenz-Mie calculation of OPC scattering (μg/m³)
DateTimeUTC,F1_M11,P_M11,Q1_M11,Q2_M11,T1_M11,T2_M11,T3_M11,T4_M11,T5_M11,U1_M11,ZSPAN_M11,X0_M11,X2_M11,X1_M11
2024-06-18 17:00:00,SystemResetWarning,0825.8,5.00,000.00,027.8,026.9,000.0,036.4,029.7,017.1,0000.0,0028.45,0005.24,0002.59
2024-06-18 17:01:00,SystemResetWarning,0825.8,5.00,000.00,027.8,026.9,000.0,036.4,029.7,017.3,0000.0,0028.08,0005.24,0002.58
2024-06-18 17:02:00,SystemResetWarning,0825.8,5.00,000.00,027.8,026.9,000.0,036.4,029.7,017.0,0000.0,0028.30,0005.21,0002.57
2024-06-18 17:03:00,SystemResetWarning,0825.8,5.00,000.00,027.8,026.9,000.0,036.4,029.7,017.1,0000.0,0027.31,0005.18,0002.56
2024-06-18 17:04:00,SystemResetWarning,0825.9,5.00,000.00,027.8,027.0,000.0,036.4,029.7,017.4,0000.0,0026.14,0005.13,0002.54
2024-06-18 17:05:00,SystemResetWarning,0825.9,5.00,000.00,027.8,027.0,000.0,036.4,029.7,017.1,0000.0,0027.17,0005.23,0002.53
2024-06-18 17:06:00,SystemResetWarning,0825.8,5.00,000.00,027.8,027.0,000.0,036.4,029.7,016.7,0000.0,0028.03,0005.19,0002.54
2024-06-18 17:07:00,SystemResetWarning,0825.8,5.00,000.00,027.8,027.0,000.0,036.4,029.7,016.9,0000.0,0029.26,0005.21,0002.53
2024-06-18 17:08:00,SystemResetWarning,0825.9,5.00,000.00,027.8,027.0,000.0,036.4,029.7,017.1,0000.0,0029.54,0005.18,0002.51
2024-06-18 17:09:00,SystemResetWarning,0825.9,5.00,000.00,027.8,027.0,000.0,036.4,029.7,016.8,0000.0,0029.75,0005.17,0002.48
2024-06-18 17:10:00,SystemResetWarning,0825.9,4.99,000.00,027.8,027.0,000.0,036.4,029.7,016.5,0000.0,0030.43,0005.19,0002.45
2024-06-18 17:11:00,SystemResetWarning,0825.8,4.99,000.00,027.9,027.1,000.0,036.4,029.8,016.0,0000.0,0028.90,0005.14,0002.42
2024-06-18 17:12:00,SystemResetWarning,0825.9,5.00,000.00,027.9,027.1,000.0,036.4,029.7,015.8,0000.0,0029.32,0005.10,0002.41
2024-06-18 17:13:00,SystemResetWarning,0825.9,5.01,000.00,027.9,027.1,000.0,036.4,029.7,016.0,0000.0,0027.95,0005.11,0002.40
2024-06-18 17:14:00,SystemResetWarning,0825.9,4.99,000.00,027.9,027.0,000.0,036.4,029.7,015.7,0000.0,0028.06,0005.10,0002.37
2024-06-18 17:15:00,SystemResetWarning,0825.9,4.99,000.00,027.9,027.0,000.0,036.4,029.7,015.3,0000.0,0028.27,0005.07,0002.33
2024-06-18 17:16:00,SystemResetWarning,0825.9,5.00,000.00,027.9,027.0,000.0,036.4,029.7,015.9,0000.0,0029.16,0005.03,0002.31
2024-06-18 17:17:00,SystemResetWarning,0826.0,5.00,000.00,027.9,027.0,000.0,036.4,029.7,015.8,0000.0,0028.89,0004.96,0002.26
2024-06-18 17:18:00,SystemResetWarning,0825.9,5.01,000.00,027.9,027.0,000.0,036.4,029.7,015.1,0000.0,0029.41,0004.84,0002.21
2024-06-18 17:19:00,SystemResetWarning,0825.9,5.01,000.00,027.9,027.0,000.0,036.4,029.7,015.1,0000.0,0028.02,0004.86,0002.19
2024-06-18 17:20:00,SystemResetWarning,0826.0,4.99,000.00,027.9,027.0,000.0,036.4,029.7,015.1,0000.0,0026.80,0004.86,0002.17
2024-06-18 17:21:00,SystemResetWarning,0826.0,4.99,000.00,027.9,027.0,000.0,036.4,029.7,014.9,0000.0,0025.74,0004.86,0002.17
2024-06-18 17:22:00,SystemResetWarning,0826.0,5.01,000.00,027.9,027.0,000.0,036.4,029.7,015.0,0000.0,0024.88,0004.82,0002.17
2024-06-18 17:23:00,SystemResetWarning,0826.1,5.01,000.00,027.9,027.0,000.0,036.4,029.7,014.9,0000.0,0024.03,0004.88,0002.15
2024-06-18 17:24:00,SystemResetWarning,0826.0,5.00,000.00,027.9,027.0,000.0,036.4,029.7,015.0,0000.0,0025.67,0004.88,0002.12
2024-06-18 17:25:00,SystemResetWarning,0826.0,4.98,000.00,027.9,027.0,000.0,036.4,029.7,015.4,0000.0,0026.81,0004.83,0002.11
2024-06-18 17:26:00,SystemResetWarning,0826.1,5.00,000.00,027.9,027.1,000.0,036.4,029.7,014.8,0000.0,0026.61,0004.74,0002.10
2024-06-18 17:27:00,SystemResetWarning,0826.0,5.02,000.00,027.9,027.1,000.0,036.4,029.7,014.6,0000.0,0024.60,0004.63,0002.08
2024-06-18 17:28:00,SystemResetWarning,0826.0,5.00,000.00,027.9,027.1,000.0,036.4,029.7,014.7,0000.0,0024.73,0004.67,0002.08
2024-06-18 17:29:00,SystemResetWarning,0826.0,5.00,000.00,027.9,027.1,000.0,036.4,029.7,014.5,0000.0,0025.14,0004.71,0002.07
2024-06-18 17:30:00,SystemResetWarning,0826.0,5.00,000.00,027.9,027.1,000.0,036.5,029.7,014.5,0000.0,0026.59,0004.68,0002.06
2024-06-18 17:31:00,SystemResetWarning,0826.1,5.00,000.00,027.9,027.1,000.0,036.5,029.7,014.5,0000.0,0027.82,0004.67,0002.05
2024-06-18 17:32:00,SystemResetWarning,0826.2,5.00,000.00,027.9,027.1,000.0,036.4,029.7,014.2,0000.0,0028.52,0004.67,0002.04
2024-06-18 17:33:00,SystemResetWarning,0826.2,5.00,000.00,027.8,027.0,000.0,036.4,029.6,014.4,0000.0,0028.94,0004.69,0002.05
2024-06-18 17:34:00,SystemResetWarning,0826.2,5.00,000.00,027.8,027.0,000.0,036.4,029.7,014.0,0000.0,0030.36,0004.71,0002.05
2024-06-18 17:35:00,SystemResetWarning,0826.2,5.01,000.00,027.8,027.0,000.0,036.4,029.7,014.0,0000.0,0029.26,0004.69,0002.07
2024-06-18 17:36:00,SystemResetWarning,0826.2,5.00,000.00,027.8,027.0,000.0,036.4,029.7,014.1,0000.0,0028.33,0004.68,0002.08
2024-06-18 17:37:00,SystemResetWarning,0826.3,5.00,000.00,027.8,027.0,000.0,036.4,029.7,013.7,0000.0,0028.43,0004.71,0002.10
2024-06-18 17:38:00,SystemResetWarning,0826.3,5.00,000.00,027.8,027.0,000.0,036.4,029.7,013.7,0000.0,0028.85,0004.75,0002.10
2024-06-18 17:39:00,SystemResetWarning,0826.3,4.99,000.00,027.8,027.0,000.0,036.4,029.7,013.9,0000.0,0028.54,0004.70,0002.08
2024-06-18 17:40:00,SystemResetWarning,0826.2,4.99,000.00,027.8,027.0,000.0,036.4,029.7,013.7,0000.0,0026.93,0004.60,0002.07
2024-06-18 17:41:00,SystemResetWarning,0826.2,5.01,000.00,027.9,027.0,000.0,036.4,029.7,013.4,0000.0,0024.97,0004.55,0002.07
2024-06-18 17:42:00,SystemResetWarning,0826.2,5.01,000.00,027.9,027.0,000.0,036.5,029.7,013.6,0000.0,0024.55,0004.51,0002.07
2024-06-18 17:43:00,SystemResetWarning,0826.2,4.99,000.00,027.9,027.0,000.0,036.5,029.7,013.8,0000.0,0025.22,0004.52,0002.06
2024-06-18 17:44:00,SystemResetWarning,0826.2,4.99,000.00,027.9,027.0,000.0,036.5,029.7,013.9,0000.0,0025.10,0004.48,0002.02
2024-06-18 17:45:00,SystemResetWarning,0826.2,4.99,000.00,027.9,027.1,000.0,036.5,029.7,013.7,0000.0,0023.63,0004.40,0001.98
2024-06-18 17:46:00,SystemResetWarning,0826.2,4.99,000.00,027.9,027.1,000.0,036.5,029.8,013.4,0000.0,0025.08,0004.38,0001.96
2024-06-18 17:47:00,SystemResetWarning,0826.3,5.00,000.00,027.9,027.1,000.0,036.5,029.8,013.4,0000.0,0025.00,0004.44,0001.94
2024-06-18 17:48:00,SystemResetWarning,0826.3,5.01,000.00,027.9,027.1,000.0,036.5,029.8,013.8,0000.0,0024.86,0004.56,0001.92
2024-06-18 17:49:00,SystemResetWarning,0826.4,5.01,000.00,027.9,027.1,000.0,036.5,029.7,013.7,0000.0,0024.90,0004.55,0001.88
2024-06-18 17:50:00,SystemResetWarning,0826.4,5.01,000.00,027.9,027.1,000.0,036.5,029.7,013.5,0000.0,0024.63,0004.59,0001.87
2024-06-18 17:51:00,SystemResetWarning,0826.2,5.00,000.00,027.9,027.1,000.0,036.5,029.7,013.3,0000.0,0024.03,0004.73,0001.87
2024-06-18 17:52:00,SystemResetWarning,0826.2,4.99,000.00,027.9,027.1,000.0,036.5,029.7,013.1,0000.0,0025.14,0004.86,0001.86
2024-06-18 17:53:00,SystemResetWarning,0826.3,4.99,000.00,027.9,027.1,000.0,036.5,029.7,013.5,0000.0,0026.79,0004.94,0001.87
2024-06-18 17:54:00,SystemResetWarning,0826.4,5.00,000.00,027.9,027.1,000.0,036.5,029.7,013.8,0000.0,0025.83,0004.90,0001.86
2024-06-18 17:55:00,SystemResetWarning,0826.4,5.00,000.00,027.9,027.1,000.0,036.5,029.7,014.3,0000.0,0025.78,0004.89,0001.86
2024-06-18 17:56:00,SystemResetWarning,0826.4,5.00,000.00,027.9,027.1,000.0,036.5,029.7,014.4,0000.0,0027.08,0004.93,0001.89
2024-06-18 17:57:00,SystemResetWarning,0826.4,5.00,000.00,027.9,027.1,000.0,036.5,029.8,014.1,0000.0,0026.39,0004.98,0001.91
2024-06-18 17:58:00,SystemResetWarning,0826.4,5.00,000.00,027.9,027.1,000.0,036.5,029.7,014.1,0000.0,0026.78,0004.95,0001.93
2024-06-18 17:59:00,SystemResetWarning,0826.4,5.00,000.00,027.9,027.1,000.0,036.5,029.7,014.0,0000.0,0027.13,0004.86,0001.95
